WetterOnline ( https://www.wetteronline.at )

Wetter aktuell Westerwald (in 500m)

Aktuelles Wetter: Bad Marienberg (555m)

6-stündlich | Neueste Meldungen
Ortszeit Temperatur Wetter
Fr, 02.12. 19:00 -1.5° C Schneegriesel
Fr, 02.12. 13:00 -0.9° C leichter Schneefall
Fr, 02.12. 7:00 0.0° C Nebel
Fr, 02.12. 1:00 0.4° C bewölkt
Do, 01.12. 19:00 0.4° C bewölkt
Do, 01.12. 13:00 2.5° C bewölkt
Do, 01.12. 7:00 3.2° C Nebel
Do, 01.12. 1:00 3.3° C bedeckt
Ortszeit Temperatur Wetter
Sa, 03.12. 0:00 -2.0° C bedeckt
Fr, 02.12. 23:40 -2.0° C bedeckt
Fr, 02.12. 23:30 -2.0° C Schneegriesel
Fr, 02.12. 23:20 -2.0° C Schneegriesel
Fr, 02.12. 23:10 -2.0° C Schneegriesel
Fr, 02.12. 23:00 -1.9° C Schneegriesel
Fr, 02.12. 22:50 -1.9° C Schneegriesel
Fr, 02.12. 22:30 -1.9° C gefrierender Regen
Fr, 02.12. 22:00 -1.9° C Schneegriesel
Fr, 02.12. 21:30 -1.9° C Schneegriesel
Fr, 02.12. 21:00 -1.9° C leichter Schneefall
Ortszeit Relative Feuchte Sichtweite
Fr, 02.12. 19:00 88% 13 km
Fr, 02.12. 13:00 92% 9 km
Fr, 02.12. 7:00 99% 1.1 km
Fr, 02.12. 1:00 98% 5.0 km
Do, 01.12. 19:00 97% 4.4 km
Do, 01.12. 13:00 94% 12 km
Do, 01.12. 7:00 100% 0.5 km
Do, 01.12. 1:00 100% 2.0 km
Ortszeit Relative Feuchte Sichtweite
Sa, 03.12. 0:00 93% 35 km
Fr, 02.12. 23:40 92% -
Fr, 02.12. 23:30 91% 22 km
Fr, 02.12. 23:20 91% -
Fr, 02.12. 23:10 91% -
Fr, 02.12. 23:00 91% 24 km
Fr, 02.12. 22:50 91% -
Fr, 02.12. 22:30 91% 13 km
Fr, 02.12. 22:00 90% 18 km
Fr, 02.12. 21:30 90% 13 km
Fr, 02.12. 21:00 91% 19 km
Ortszeit Niederschlagsmenge Niederschlagsart
Fr, 02.12. 19:00 0.2 l/m2 in 12 Std. Schnee, Regen
Fr, 02.12. 13:00 0.1 l/m2 in 6 Std. Schnee
Fr, 02.12. 7:00 0.0 l/m2 in 12 Std. -
Fr, 02.12. 1:00 0.0 l/m2 in 6 Std. -
Do, 01.12. 19:00 0.1 l/m2 in 12 Std. -
Do, 01.12. 13:00 0.1 l/m2 in 6 Std. Sprühregen
Do, 01.12. 7:00 0.1 l/m2 in 12 Std. -
Do, 01.12. 1:00 0.1 l/m2 in 6 Std. Sprühregen
Ortszeit Niederschlagsmenge Niederschlagsart
Sa, 03.12. 0:00 <0.05 l/m2 in 1 Std. Schnee, Sprühregen
Fr, 02.12. 23:40 keine Meldung -
Fr, 02.12. 23:30 <0.05 l/m2 in 30 Min -
Fr, 02.12. 23:20 keine Meldung -
Fr, 02.12. 23:10 keine Meldung -
Fr, 02.12. 23:00 <0.05 l/m2 in 1 Std. Schnee, Regen
Fr, 02.12. 22:50 keine Meldung -
Fr, 02.12. 22:30 <0.05 l/m2 in 30 Min -
Fr, 02.12. 22:00 <0.05 l/m2 in 1 Std. Schnee, Regen
Fr, 02.12. 21:30 <0.05 l/m2 in 30 Min -
Fr, 02.12. 21:00 <0.05 l/m2 in 1 Std. Schnee, Regen
Ortszeit Stärke Spitze Richtung
km/h Bft. km/h Grad Sektor
Fr, 02.12. 19:00 20 4 35 70° O
Fr, 02.12. 13:00 17 3 35 60° NO
Fr, 02.12. 7:00 9 2 19 50° NO
Fr, 02.12. 1:00 6 1 20 40° NO
Do, 01.12. 19:00 13 3 24 40° NO
Do, 01.12. 13:00 11 2 22 50° NO
Do, 01.12. 7:00 9 2 19 10° N
Do, 01.12. 1:00 9 2 22 10° N
Ortszeit Stärke Spitze Richtung
km/h Bft. km/h Grad Sektor
Sa, 03.12. 0:00 18 3 32 70° O
Fr, 02.12. 23:40 18 3 - 70° O
Fr, 02.12. 23:30 18 3 32 70° O
Fr, 02.12. 23:20 18 3 - 70° O
Fr, 02.12. 23:10 18 3 - 60° NO
Fr, 02.12. 23:00 17 3 33 60° NO
Fr, 02.12. 22:50 17 3 - 60° NO
Fr, 02.12. 22:30 19 3 31 60° NO
Fr, 02.12. 22:00 17 3 28 60° NO
Fr, 02.12. 21:30 17 3 28 60° NO
Fr, 02.12. 21:00 18 3 32 70° O
Ortszeit Untergrenze Bedeckung Gattung
total tief tief mittel hoch
Fr, 02.12. 19:00 390 m 7/8 7/8 - - -
Fr, 02.12. 13:00 - 8/8 - - - -
Fr, 02.12. 7:00 <30 m 8/8 0/8 - - -
Fr, 02.12. 1:00 90 m 7/8 7/8 - - -
Do, 01.12. 19:00 60 m 7/8 7/8 - - -
Do, 01.12. 13:00 360 m 7/8 7/8 - - -
Do, 01.12. 7:00 <30 m 8/8 0/8 - - -
Do, 01.12. 1:00 <30 m 8/8 0/8 - - -
Ortszeit Bedeckungsgrad in Achtel und Wolkenuntergrenze
Sa, 03.12. 0:00 8
Fr, 02.12. 23:40 8
Fr, 02.12. 23:30 9 9 9
Fr, 02.12. 23:20 9 9 9
Fr, 02.12. 23:10 8
Fr, 02.12. 23:00 4(270m)
Fr, 02.12. 22:50 4(270m)
Fr, 02.12. 22:30 4(270m) 5(390m)
Fr, 02.12. 22:00 6(300m)
Fr, 02.12. 21:30 4(270m) 5(390m) 6(510m)
Fr, 02.12. 21:00 6(270m)
Ortszeit Luftdruck NN (hPa) Tendenz (hPa in 3 Std.)
Fr, 02.12. 19:00 1022 + 0,6
Fr, 02.12. 13:00 1022 - 0,8
Fr, 02.12. 7:00 1023 - 1,1
Fr, 02.12. 1:00 1025 - 0,9
Do, 01.12. 19:00 1026 + 0,1
Do, 01.12. 13:00 1026 - 0,3
Do, 01.12. 7:00 1025 0,0
Do, 01.12. 1:00 1025 + 0,1
Ortszeit Luftdruck NN (hPa) Tendenz (hPa in 3 Std.)
Sa, 03.12. 0:00 1022 + 0,1
Fr, 02.12. 23:40 1022 keine Meldung
Fr, 02.12. 23:30 1022 0,0
Fr, 02.12. 23:20 1022 keine Meldung
Fr, 02.12. 23:10 1022 keine Meldung
Fr, 02.12. 23:00 1022 - 0,1
Fr, 02.12. 22:50 1022 keine Meldung
Fr, 02.12. 22:30 1022 - 0,1
Fr, 02.12. 22:00 1022 - 0,3
Fr, 02.12. 21:30 1022 - 0,1
Fr, 02.12. 21:00 1022 + 0,1
Ortszeit Schneehöhe (cm)
Fr, 02.12. 19:00 0
Fr, 02.12. 13:00 0
Fr, 02.12. 7:00 0
Fr, 02.12. 1:00 0
Do, 01.12. 19:00 0
Do, 01.12. 13:00 0
Do, 01.12. 7:00 0
Do, 01.12. 1:00 0
Ortszeit Schneehöhe (cm)
Sa, 03.12. 0:00 1
Fr, 02.12. 23:40 1
Fr, 02.12. 23:30 1
Fr, 02.12. 23:20 1
Fr, 02.12. 23:10 1
Fr, 02.12. 23:00 1
Fr, 02.12. 22:50 1
Fr, 02.12. 22:30 1
Fr, 02.12. 22:00 1
Fr, 02.12. 21:30 1
Fr, 02.12. 21:00 1
Link zu dieser Seite / Seite empfehlen

Das Wetter in ...